Time,TemperatureF,DewpointF,PressureIn,WindDirection,WindDirectionDegrees,WindSpeedMPH,WindSpeedGustMPH,Humidity,HourlyPrecipIn,Conditions,Clouds,dailyrainin,SoftwareType,DateUTC
2013-05-20 00:02:00,67.0,64.0,-100.00,SSE,150,6.0,10.0,90,-99.99,,,-99.99,,2013-05-20 05:02:00,
2013-05-20 00:12:00,68.0,64.0,-100.00,SE,135,6.0,10.0,89,-99.99,,,-99.99,,2013-05-20 05:12:00,
2013-05-20 00:22:00,69.0,65.0,-100.00,SE,135,7.0,11.0,90,-99.99,,,-99.99,,2013-05-20 05:22:00,
2013-05-20 00:32:00,69.0,65.0,-100.00,SE,135,7.0,11.0,90,-99.99,,,-99.99,,2013-05-20 05:32:00,
2013-05-20 00:42:00,73.0,69.0,-100.00,South,180,14.0,19.0,86,-99.99,,,-99.99,,2013-05-20 05:42:00,
2013-05-20 00:52:00,75.0,70.0,-100.00,SSW,195,17.0,23.0,85,-99.99,,,-99.99,,2013-05-20 05:52:00,
2013-05-20 01:01:00,75.0,70.0,-100.00,SSW,195,17.0,23.0,85,-99.99,,,-99.99,,2013-05-20 06:01:00,
2013-05-20 01:11:00,75.0,71.0,-100.00,SSW,195,15.0,21.0,87,-99.99,,,-99.99,,2013-05-20 06:11:00,
2013-05-20 01:21:00,76.0,71.0,-100.00,SSW,205,18.0,24.0,86,-99.99,,,-99.99,,2013-05-20 06:21:00,
2013-05-20 01:32:00,76.0,71.0,-100.00,SSW,205,18.0,24.0,86,-99.99,,,-99.99,,2013-05-20 06:32:00,
2013-05-20 01:42:00,74.0,64.0,-100.00,WNW,300,8.0,29.0,71,-99.99,,,-99.99,,2013-05-20 06:42:00,
2013-05-20 01:52:00,70.0,66.0,-100.00,NW,305,13.0,17.0,88,-99.99,,,-99.99,,2013-05-20 06:52:00,
2013-05-20 02:02:00,70.0,66.0,-100.00,NW,305,13.0,17.0,88,-99.99,,,-99.99,,2013-05-20 07:02:00,
2013-05-20 02:12:00,67.0,66.0,-100.00,WNW,290,5.0,14.0,96,-99.99,,,-99.99,,2013-05-20 07:12:00,
2013-05-20 02:21:00,67.0,66.0,-100.00,North,0,1.0,3.0,99,-99.99,,,-99.99,,2013-05-20 07:21:00,
2013-05-20 02:32:00,67.0,66.0,-100.00,North,0,1.0,3.0,99,-99.99,,,-99.99,,2013-05-20 07:32:00,
2013-05-20 02:42:00,67.0,66.0,-100.00,North,0,1.0,3.0,99,-99.99,,,-99.99,,2013-05-20 07:42:00,
2013-05-20 04:00:00,65.0,-99.9,-100.00,WSW,255,1.0,6.0,-999,-99.99,,,-99.99,,2013-05-20 09:00:00,
2013-05-20 04:22:00,65.0,-99.9,-100.00,South,185,4.0,5.0,-999,-99.99,,,-99.99,,2013-05-20 09:22:00,
2013-05-20 04:33:00,65.0,-99.9,-100.00,South,185,4.0,5.0,-999,-99.99,,,-99.99,,2013-05-20 09:33:00,
2013-05-20 04:43:00,65.0,-99.9,-100.00,WSW,255,1.0,6.0,-999,-99.99,,,-99.99,,2013-05-20 09:43:00,
2013-05-20 04:53:00,65.0,-99.9,-100.00,WSW,255,1.0,6.0,-999,-99.99,,,-99.99,,2013-05-20 09:53:00,
2013-05-20 07:12:00,62.0,-99.9,-100.00,South,175,16.0,24.0,-999,-99.99,,,-99.99,,2013-05-20 12:12:00,
2013-05-20 07:21:00,63.0,-99.9,-100.00,SSE,160,19.0,26.0,-999,-99.99,,,-99.99,,2013-05-20 12:21:00,
2013-05-20 07:32:00,63.0,-99.9,-100.00,SSE,160,19.0,26.0,-999,-99.99,,,-99.99,,2013-05-20 12:32:00,
2013-05-20 07:41:00,64.0,63.0,-100.00,South,175,17.0,24.0,98,-99.99,,,-99.99,,2013-05-20 12:41:00,
2013-05-20 07:52:00,64.0,63.0,-100.00,South,175,12.0,22.0,97,-99.99,,,-99.99,,2013-05-20 12:52:00,
2013-05-20 08:01:00,64.0,63.0,-100.00,South,175,12.0,22.0,97,-99.99,,,-99.99,,2013-05-20 13:01:00,
2013-05-20 08:11:00,64.0,-99.9,-100.00,South,185,11.0,16.0,-999,-99.99,,,-99.99,,2013-05-20 13:11:00,
2013-05-20 08:22:00,65.0,65.0,-100.00,SSW,195,12.0,20.0,98,-99.99,,,-99.99,,2013-05-20 13:22:00,
2013-05-20 08:31:00,65.0,65.0,-100.00,SSW,195,12.0,20.0,98,-99.99,,,-99.99,,2013-05-20 13:31:00,
2013-05-20 08:41:00,65.0,65.0,-100.00,SSW,195,12.0,20.0,98,-99.99,,,-99.99,,2013-05-20 13:41:00,
2013-05-20 08:52:00,67.0,65.0,-100.00,SW,215,16.0,26.0,91,-99.99,,,-99.99,,2013-05-20 13:52:00,
2013-05-20 09:01:00,67.0,65.0,-100.00,SW,215,16.0,26.0,91,-99.99,,,-99.99,,2013-05-20 14:01:00,
2013-05-20 09:11:00,69.0,64.0,-100.00,SW,220,21.0,29.0,84,-99.99,,,-99.99,,2013-05-20 14:11:00,
2013-05-20 09:22:00,71.0,63.0,-100.00,SW,215,26.0,39.0,76,-99.99,,,-99.99,,2013-05-20 14:22:00,
2013-05-20 09:32:00,71.0,63.0,-100.00,SW,215,26.0,39.0,76,-99.99,,,-99.99,,2013-05-20 14:32:00,
2013-05-20 09:42:00,69.0,62.0,-100.00,SW,235,24.0,32.0,79,-99.99,,,-99.99,,2013-05-20 14:42:00,
2013-05-20 09:52:00,71.0,63.0,-100.00,SW,225,29.0,35.0,77,-99.99,,,-99.99,,2013-05-20 14:52:00,
2013-05-20 10:01:00,71.0,63.0,-100.00,SW,225,29.0,35.0,77,-99.99,,,-99.99,,2013-05-20 15:01:00,
2013-05-20 10:11:00,71.0,63.0,-100.00,SSW,210,25.0,36.0,78,-99.99,,,-99.99,,2013-05-20 15:11:00,
2013-05-20 10:21:00,71.0,64.0,-100.00,SW,215,23.0,33.0,80,-99.99,,,-99.99,,2013-05-20 15:21:00,
2013-05-20 10:33:00,71.0,64.0,-100.00,SW,215,23.0,33.0,80,-99.99,,,-99.99,,2013-05-20 15:33:00,
2013-05-20 10:42:00,71.0,64.0,-100.00,SW,215,21.0,32.0,79,-99.99,,,-99.99,,2013-05-20 15:42:00,
2013-05-20 10:53:00,73.0,67.0,-100.00,SSW,210,15.0,31.0,81,-99.99,,,-99.99,,2013-05-20 15:53:00,
2013-05-20 11:03:00,73.0,67.0,-100.00,SSW,210,15.0,31.0,81,-99.99,,,-99.99,,2013-05-20 16:03:00,
2013-05-20 11:12:00,73.0,66.0,-100.00,SW,230,19.0,29.0,77,-99.99,,,-99.99,,2013-05-20 16:12:00,
2013-05-20 11:22:00,73.0,67.0,-100.00,SSW,205,19.0,31.0,81,-99.99,,,-99.99,,2013-05-20 16:22:00,
2013-05-20 11:33:00,73.0,67.0,-100.00,SSW,205,19.0,31.0,81,-99.99,,,-99.99,,2013-05-20 16:33:00,
2013-05-20 11:42:00,73.0,65.0,-100.00,SSW,210,20.0,32.0,76,-99.99,,,-99.99,,2013-05-20 16:42:00,
2013-05-20 11:53:00,74.0,65.0,-100.00,SW,225,24.0,32.0,74,-99.99,,,-99.99,,2013-05-20 16:53:00,
2013-05-20 12:02:00,74.0,65.0,-100.00,SW,225,24.0,32.0,74,-99.99,,,-99.99,,2013-05-20 17:02:00,
2013-05-20 12:12:00,74.0,65.0,-100.00,SW,225,24.0,32.0,74,-99.99,,,-99.99,,2013-05-20 17:12:00,
2013-05-20 12:22:00,75.0,64.0,-100.00,SW,230,24.0,33.0,70,-99.99,,,-99.99,,2013-05-20 17:22:00,
2013-05-20 12:33:00,75.0,64.0,-100.00,SW,230,24.0,33.0,70,-99.99,,,-99.99,,2013-05-20 17:33:00,
2013-05-20 12:45:00,74.0,64.0,-100.00,SW,220,24.0,32.0,71,-99.99,,,-99.99,,2013-05-20 17:45:00,
2013-05-20 12:53:00,75.0,67.0,-100.00,SW,215,16.0,25.0,74,-99.99,,,-99.99,,2013-05-20 17:53:00,
2013-05-20 13:02:00,75.0,67.0,-100.00,SW,215,16.0,25.0,74,-99.99,,,-99.99,,2013-05-20 18:02:00,
2013-05-20 13:12:00,75.0,64.0,-100.00,SW,220,23.0,32.0,68,-99.99,,,-99.99,,2013-05-20 18:12:00,
2013-05-20 13:23:00,77.0,66.0,-100.00,SW,230,17.0,26.0,70,-99.99,,,-99.99,,2013-05-20 18:23:00,
2013-05-20 13:32:00,77.0,66.0,-100.00,SW,230,17.0,26.0,70,-99.99,,,-99.99,,2013-05-20 18:32:00,
2013-05-20 13:42:00,77.0,66.0,-100.00,SW,220,19.0,24.0,67,-99.99,,,-99.99,,2013-05-20 18:42:00,
2013-05-20 13:55:00,78.0,67.0,-100.00,SW,235,18.0,25.0,68,-99.99,,,-99.99,,2013-05-20 18:55:00,
2013-05-20 14:04:00,78.0,67.0,-100.00,SW,235,18.0,25.0,68,-99.99,,,-99.99,,2013-05-20 19:04:00,
2013-05-20 14:11:00,78.0,67.0,-100.00,SW,220,21.0,29.0,67,-99.99,,,-99.99,,2013-05-20 19:11:00,
2013-05-20 14:21:00,78.0,66.0,-100.00,SW,225,17.0,30.0,65,-99.99,,,-99.99,,2013-05-20 19:21:00,
2013-05-20 14:32:00,78.0,66.0,-100.00,SW,225,17.0,30.0,65,-99.99,,,-99.99,,2013-05-20 19:32:00,
2013-05-20 14:41:00,78.0,66.0,-100.00,SW,225,17.0,30.0,65,-99.99,,,-99.99,,2013-05-20 19:41:00,
2013-05-20 14:52:00,77.0,65.0,-100.00,SW,230,24.0,37.0,66,-99.99,,,-99.99,,2013-05-20 19:52:00,
2013-05-20 15:01:00,77.0,65.0,-100.00,SW,230,24.0,37.0,66,-99.99,,,-99.99,,2013-05-20 20:01:00,
2013-05-20 15:12:00,77.0,63.0,-100.00,SW,225,32.0,40.0,61,-99.99,,,-99.99,,2013-05-20 20:12:00,
2013-05-20 15:21:00,77.0,63.0,-100.00,SW,230,29.0,36.0,63,-99.99,,,-99.99,,2013-05-20 20:21:00,
2013-05-20 15:32:00,77.0,63.0,-100.00,SW,230,29.0,36.0,63,-99.99,,,-99.99,,2013-05-20 20:32:00,
2013-05-20 15:42:00,76.0,66.0,-100.00,SSW,205,15.0,26.0,71,-99.99,,,-99.99,,2013-05-20 20:42:00,
2013-05-20 15:52:00,79.0,65.0,-100.00,SW,230,13.0,23.0,62,-99.99,,,-99.99,,2013-05-20 20:52:00,
2013-05-20 16:01:00,79.0,65.0,-100.00,SW,230,13.0,23.0,62,-99.99,,,-99.99,,2013-05-20 21:01:00,
2013-05-20 16:11:00,80.0,65.0,-100.00,SSW,210,19.0,24.0,62,-99.99,,,-99.99,,2013-05-20 21:11:00,
2013-05-20 16:21:00,80.0,65.0,-100.00,SW,230,15.0,24.0,62,-99.99,,,-99.99,,2013-05-20 21:21:00,
2013-05-20 16:33:00,80.0,65.0,-100.00,SW,230,15.0,24.0,62,-99.99,,,-99.99,,2013-05-20 21:33:00,
2013-05-20 16:43:00,80.0,65.0,-100.00,SW,230,15.0,24.0,62,-99.99,,,-99.99,,2013-05-20 21:43:00,
2013-05-20 16:53:00,80.0,65.0,-100.00,WSW,245,14.0,24.0,61,-99.99,,,-99.99,,2013-05-20 21:53:00,
2013-05-20 17:02:00,80.0,65.0,-100.00,WSW,245,14.0,24.0,61,-99.99,,,-99.99,,2013-05-20 22:02:00,
2013-05-20 17:12:00,80.0,61.0,-100.00,SW,230,23.0,29.0,53,-99.99,,,-99.99,,2013-05-20 22:12:00,
2013-05-20 17:23:00,79.0,63.0,-100.00,SW,230,19.0,29.0,57,-99.99,,,-99.99,,2013-05-20 22:23:00,
2013-05-20 17:33:00,79.0,63.0,-100.00,SW,230,19.0,29.0,57,-99.99,,,-99.99,,2013-05-20 22:33:00,
2013-05-20 17:42:00,79.0,65.0,-100.00,SW,220,18.0,26.0,62,-99.99,,,-99.99,,2013-05-20 22:42:00,
2013-05-20 17:52:00,79.0,65.0,-100.00,SW,215,20.0,24.0,63,-99.99,,,-99.99,,2013-05-20 22:52:00,
2013-05-20 18:03:00,79.0,65.0,-100.00,SW,215,20.0,24.0,63,-99.99,,,-99.99,,2013-05-20 23:03:00,
2013-05-20 18:12:00,78.0,65.0,-100.00,SSW,205,20.0,24.0,65,-99.99,,,-99.99,,2013-05-20 23:12:00,
2013-05-20 18:22:00,78.0,63.0,-100.00,SW,215,20.0,26.0,60,-99.99,,,-99.99,,2013-05-20 23:22:00,
2013-05-20 18:32:00,78.0,63.0,-100.00,SW,215,20.0,26.0,60,-99.99,,,-99.99,,2013-05-20 23:32:00,
2013-05-20 18:42:00,77.0,64.0,-100.00,SSW,205,16.0,26.0,63,-99.99,,,-99.99,,2013-05-20 23:42:00,
2013-05-20 18:53:00,78.0,61.0,-100.00,SW,230,19.0,26.0,57,-99.99,,,-99.99,,2013-05-20 23:53:00,
2013-05-20 19:01:00,78.0,61.0,-100.00,SW,230,19.0,26.0,57,-99.99,,,-99.99,,2013-05-21 00:01:00,
2013-05-20 19:11:00,77.0,64.0,-100.00,SW,215,12.0,23.0,63,-99.99,,,-99.99,,2013-05-21 00:11:00,
2013-05-20 19:21:00,76.0,62.0,-100.00,SSW,210,14.0,19.0,61,-99.99,,,-99.99,,2013-05-21 00:21:00,
2013-05-20 19:32:00,76.0,62.0,-100.00,SSW,210,14.0,19.0,61,-99.99,,,-99.99,,2013-05-21 00:32:00,
2013-05-20 19:42:00,75.0,64.0,-100.00,SW,215,9.0,13.0,69,-99.99,,,-99.99,,2013-05-21 00:42:00,
2013-05-20 19:52:00,75.0,56.0,-100.00,SW,220,18.0,21.0,52,-99.99,,,-99.99,,2013-05-21 00:52:00,
2013-05-20 20:01:00,75.0,56.0,-100.00,SW,220,18.0,21.0,52,-99.99,,,-99.99,,2013-05-21 01:01:00,
2013-05-20 20:11:00,73.0,61.0,-100.00,SSW,205,7.0,14.0,67,-99.99,,,-99.99,,2013-05-21 01:11:00,
2013-05-20 20:22:00,74.0,61.0,-100.00,WSW,250,5.0,6.0,63,-99.99,,,-99.99,,2013-05-21 01:22:00,
2013-05-20 20:32:00,74.0,61.0,-100.00,WSW,250,5.0,6.0,63,-99.99,,,-99.99,,2013-05-21 01:32:00,
2013-05-20 20:42:00,74.0,60.0,-100.00,West,270,3.0,6.0,62,-99.99,,,-99.99,,2013-05-21 01:42:00,
2013-05-20 20:53:00,74.0,64.0,-100.00,WSW,250,1.0,4.0,70,-99.99,,,-99.99,,2013-05-21 01:53:00,
2013-05-20 21:02:00,74.0,64.0,-100.00,WSW,250,1.0,4.0,70,-99.99,,,-99.99,,2013-05-21 02:02:00,
2013-05-20 21:11:00,71.0,66.0,-100.00,North,10,3.0,4.0,84,-99.99,,,-99.99,,2013-05-21 02:11:00,
2013-05-20 21:21:00,67.0,67.0,-100.00,WSW,245,18.0,26.0,99,-99.99,,,-99.99,,2013-05-21 02:21:00,
2013-05-20 21:32:00,67.0,67.0,-100.00,WSW,245,18.0,26.0,99,-99.99,,,-99.99,,2013-05-21 02:32:00,
2013-05-20 21:42:00,63.0,-99.9,-100.00,SW,230,3.0,24.0,-999,-99.99,,,-99.99,,2013-05-21 02:42:00,
2013-05-20 21:52:00,63.0,-99.9,-100.00,South,175,8.0,11.0,-999,-99.99,,,-99.99,,2013-05-21 02:52:00,
2013-05-20 22:02:00,63.0,-99.9,-100.00,South,175,8.0,11.0,-999,-99.99,,,-99.99,,2013-05-21 03:02:00,
2013-05-20 22:11:00,64.0,-99.9,-100.00,SSW,200,8.0,13.0,-999,-99.99,,,-99.99,,2013-05-21 03:11:00,
2013-05-20 22:22:00,64.0,-99.9,-100.00,WSW,250,12.0,24.0,-999,-99.99,,,-99.99,,2013-05-21 03:22:00,
2013-05-20 22:33:00,64.0,-99.9,-100.00,WSW,250,12.0,24.0,-999,-99.99,,,-99.99,,2013-05-21 03:33:00,
2013-05-20 22:43:00,63.0,-99.9,-100.00,WSW,250,6.0,34.0,-999,-99.99,,,-99.99,,2013-05-21 03:43:00,
2013-05-20 22:54:00,62.0,-99.9,-100.00,SSE,165,9.0,13.0,-999,-99.99,,,-99.99,,2013-05-21 03:54:00,
2013-05-20 23:03:00,62.0,-99.9,-100.00,SSE,165,9.0,13.0,-999,-99.99,,,-99.99,,2013-05-21 04:03:00,
2013-05-20 23:13:00,63.0,-99.9,-100.00,SE,145,11.0,20.0,-999,-99.99,,,-99.99,,2013-05-21 04:13:00,
2013-05-20 23:23:00,63.0,-99.9,-100.00,SSE,160,14.0,21.0,-999,-99.99,,,-99.99,,2013-05-21 04:23:00,
2013-05-20 23:33:00,62.0,-99.9,-100.00,SE,145,13.0,21.0,-999,-99.99,,,-99.99,,2013-05-21 04:33:00,
2013-05-20 23:42:00,62.0,-99.9,-100.00,SE,145,13.0,21.0,-999,-99.99,,,-99.99,,2013-05-21 04:42:00,
2013-05-20 23:53:00,63.0,-99.9,-100.00,SSE,155,9.0,21.0,-999,-99.99,,,-99.99,,2013-05-21 04:53:00,